Location: Alfords
(31.4624°N, 83.9238°W)
Time: 19:20:00
(UTC+00:00)

N. Korean satellite - Pass Details

Date: 26 September 2021
Orbit: 450 x 495 km, 97.3° (Epoch: 16 October)

Event Time Altitude Azimuth Distance (km) Brightness Sun altitude
Rises 10:56:21 0° 6° (N) 2,533 10.3 -7.3°
Reaches altitude 10° 10:58:25 10° 3° (N) 1,659 9.4 -6.8°
Maximum altitude 11:01:57 61° 283° (WNW) 554 6.6 -6.1°
Drops below altitude 10° 11:05:30 10° 203° (SSW) 1,671 9.1 -5.3°
Sets 11:07:35 0° 199° (SSW) 2,554 10.0 -4.9°
